This is the latest recevied weather packets stored in our database for station/object W8CEN. If no packets are shown the sender has not sent any weather packets the latest 10 day(s).
| Time | Temp. | Humidity | Pressure | Rain* | Wind** | Luminosity | Snow |
|---|---|---|---|---|---|---|---|
| 1777895884 | 11.67° C | 70% | 985.8 hPa | 0 mm | - | 136 W/m² | - |
| 1777895581 | 10.56° C | 72% | 985.8 hPa | 0 mm | - | 113 W/m² | - |
| 1777895278 | 10.56° C | 73% | 986 hPa | 0 mm | - | 66 W/m² | - |
| 1777894976 | 10.56° C | 72% | 985.9 hPa | 0 mm | - | 50 W/m² | - |
| 1777894673 | 10.56° C | 73% | 985.8 hPa | 0 mm | - | 52 W/m² | - |
| 1777894370 | 10° C | 72% | 985.8 hPa | 0 mm | - | 50 W/m² | - |
| 1777894068 | 10° C | 73% | 985.8 hPa | 0 mm | - | 39 W/m² | - |
| 1777893764 | 10° C | 72% | 985.7 hPa | 0 mm | - | 48 W/m² | - |
| 1777893461 | 10° C | 73% | 985.5 hPa | 0 mm | - | 39 W/m² | - |
| 1777893157 | 10° C | 73% | 985.5 hPa | 0 mm | - | 33 W/m² | - |
| 1777892853 | 10° C | 73% | 985.6 hPa | 0 mm | - | 30 W/m² | - |
| 1777892550 | 9.44° C | 73% | 985.5 hPa | 0 mm | - | 29 W/m² | - |
| 1777892245 | 9.44° C | 74% | 985.4 hPa | 0 mm | - | 28 W/m² | - |
| 1777891942 | 9.44° C | 74% | 985.5 hPa | 0 mm | - | 23 W/m² | - |
| 1777891640 | 9.44° C | 74% | 985.4 hPa | 0 mm | - | 15 W/m² | - |
| 1777891336 | 9.44° C | 73% | 985.3 hPa | 0 mm | - | 12 W/m² | - |
| 1777891032 | 9.44° C | 73% | 985.3 hPa | 0 mm | - | 8 W/m² | - |
| 1777890731 | 9.44° C | 73% | 985.4 hPa | 0 mm | - | 6 W/m² | - |
| 1777890428 | 9.44° C | 73% | 985.2 hPa | 0 mm | - | 4 W/m² | - |
| 1777890123 | 9.44° C | 72% | 985.3 hPa | 0 mm | - | 2 W/m² | - |
| 1777889821 | 9.44° C | 72% | 985.3 hPa | 0 mm | - | 1 W/m² | - |
| 1777889518 | 10° C | 72% | 985.3 hPa | 0 mm | - | 0 W/m² | - |
| 1777889215 | 10° C | 72% | 985.4 hPa | 0 mm | - | 0 W/m² | - |
| 1777888914 | 10° C | 71% | 985.1 hPa | 0 mm | - | 0 W/m² | - |
| 1777888610 | 9.44° C | 71% | 985.4 hPa | 0 mm | - | 0 W/m² | - |
* Rain latest hour (hover to see other rain measurements)
** Current wind speed in m/s (hover to see current wind gust speed)